Hourly Data Report for September 10, 2017

All times are specified in Local Standard Time (LST). Add 1 hour to adjust for Daylight Saving Time where and when it is observed.

EAST POINT (AUT)
PRINCE EDWARD ISLAND

46°27'36.000" N
61°59'18.000" W
7.70 m
8300418
71412
WEP

Download Data

Hourly Data (September 2017)
Hourly Data Report for September 10, 2017
Temp Definition
°C
Dew Point Temp Definition
°C
Rel Hum Definition
%
Wind Dir Definition
10's deg

Wind Spd Definition
km/h
Visibility Definition
km
Stn Press Definition
kPa
Hmdx Definition


Wind Chill Definition


Weather Definition


TIME
00:00 16.8 15.0 89 3 26   102.06     LegendNANA
01:00 16.6 14.6 88 4 27   102.04     LegendNANA
02:00 16.7 14.4 86 2 25   102.04     LegendNANA
03:00 17.0 14.7 86 1 28   102.02     LegendNANA
04:00 16.9 14.6 87 1 28   102.01     LegendNANA
05:00 16.7 14.2 85 1 32   102.04     LegendNANA
06:00 16.4 13.7 84 36 32   102.08     LegendNANA
07:00 16.6 13.5 82 36 28   102.11     LegendNANA
08:00 16.7 13.2 80 36 27   102.11     LegendNANA
09:00 16.4 12.7 79 36 28   102.16     LegendNANA
10:00 16.1 11.8 75 36 26   102.12     LegendNANA
11:00 16.0 12.0 77 35 23   102.11     LegendNANA
12:00 16.4 12.4 77 34 24   102.04     LegendNANA
13:00 16.1 11.5 74 34 26   102.01     LegendNANA
14:00 16.3 11.4 73 35 27   101.93     LegendNANA
15:00 15.5 12.1 80 35 28   101.90     LegendNANA
16:00 15.5 11.2 76 35 31   101.86     LegendNANA
17:00 15.4 10.7 74 35 30   101.83     LegendNANA
18:00 15.2 11.0 76 34 30   101.83     LegendNANA
19:00 15.2 11.4 78 33 30   101.83     LegendNANA
20:00 15.3 11.9 80 34 27   101.84     LegendNANA
21:00 15.4 11.2 76 34 29   101.80     LegendNANA
22:00 15.3 10.8 75 35 28   101.75     LegendNANA
23:00 15.1 10.7 75 34 28   101.66     LegendNANA

Notes on Data Quality.

Legend

  • E = Estimated
  • M = Missing
  • NA = Not Available
  • ‡ = Partner data that is not subject to review by the National Climate Archives
Date modified: